Time,TemperatureF,DewpointF,PressureIn,WindDirection,WindDirectionDegrees,WindSpeedMPH,WindSpeedGustMPH,Humidity,HourlyPrecipIn,Conditions,Clouds,dailyrainin,SoftwareType,DateUTC
2013-08-30 00:06:00,69.9,67.0,30.03,WSW,256,0.0,1.0,89,0.00,,,0.00,weatherlink.com 1.10,2013-08-30 04:06:00,
2013-08-30 00:21:00,69.9,67.0,30.03,SSW,210,0.0,1.0,89,0.00,,,0.00,weatherlink.com 1.10,2013-08-30 04:21:00,
2013-08-30 00:36:00,69.8,67.0,30.03,South,191,0.0,1.0,89,0.00,,,0.00,weatherlink.com 1.10,2013-08-30 04:36:00,
2013-08-30 00:51:00,69.7,66.0,30.03,SW,225,0.0,1.0,89,0.00,,,0.00,weatherlink.com 1.10,2013-08-30 04:51:00,
2013-08-30 01:06:00,69.5,66.0,30.02,SW,225,0.0,0.0,89,0.00,,,0.00,weatherlink.com 1.10,2013-08-30 05:06:00,
2013-08-30 01:21:00,69.2,66.0,30.02,SW,225,0.0,0.0,89,0.00,,,0.00,weatherlink.com 1.10,2013-08-30 05:21:00,
2013-08-30 01:36:00,69.1,66.0,30.02,SW,225,0.0,0.0,90,0.00,,,0.00,weatherlink.com 1.10,2013-08-30 05:36:00,
2013-08-30 01:51:00,68.7,66.0,30.01,SW,225,0.0,1.0,90,0.00,,,0.00,weatherlink.com 1.10,2013-08-30 05:51:00,
2013-08-30 02:06:00,68.5,66.0,30.01,SW,225,0.0,0.0,90,0.00,,,0.00,weatherlink.com 1.10,2013-08-30 06:06:00,
2013-08-30 02:21:00,68.6,66.0,30.01,SW,225,0.0,0.0,90,0.00,,,0.00,weatherlink.com 1.10,2013-08-30 06:21:00,
2013-08-30 02:36:00,68.6,66.0,30.01,SW,225,0.0,0.0,90,0.00,,,0.00,weatherlink.com 1.10,2013-08-30 06:36:00,
2013-08-30 02:51:00,68.6,66.0,30.00,SW,225,0.0,0.0,91,0.00,,,0.00,weatherlink.com 1.10,2013-08-30 06:51:00,
2013-08-30 03:06:00,68.6,66.0,30.00,SW,226,0.0,0.0,90,0.00,,,0.00,weatherlink.com 1.10,2013-08-30 07:06:00,
2013-08-30 03:36:00,68.6,66.0,30.00,SW,225,0.0,0.0,90,0.00,,,0.00,weatherlink.com 1.10,2013-08-30 07:36:00,
2013-08-30 03:51:00,68.5,66.0,30.00,SW,225,0.0,0.0,90,0.00,,,0.00,weatherlink.com 1.10,2013-08-30 07:51:00,
2013-08-30 04:06:00,68.6,66.0,30.00,SW,225,0.0,0.0,91,0.00,,,0.00,weatherlink.com 1.10,2013-08-30 08:06:00,
2013-08-30 04:21:00,68.6,66.0,30.00,North,1,0.0,0.0,91,0.00,,,0.00,weatherlink.com 1.10,2013-08-30 08:21:00,
2013-08-30 04:36:00,68.6,66.0,30.00,North,1,0.0,0.0,91,0.00,,,0.00,weatherlink.com 1.10,2013-08-30 08:36:00,
2013-08-30 04:51:00,68.6,66.0,30.00,North,1,0.0,0.0,91,0.00,,,0.00,weatherlink.com 1.10,2013-08-30 08:51:00,
2013-08-30 05:06:00,68.6,66.0,30.00,SW,236,0.0,1.0,91,0.00,,,0.00,weatherlink.com 1.10,2013-08-30 09:06:00,
2013-08-30 05:21:00,68.6,66.0,30.00,SW,236,0.0,0.0,91,0.00,,,0.00,weatherlink.com 1.10,2013-08-30 09:21:00,
2013-08-30 05:36:00,68.6,66.0,30.00,NNE,26,0.0,0.0,91,0.00,,,0.00,weatherlink.com 1.10,2013-08-30 09:36:00,
2013-08-30 05:51:00,68.5,66.0,30.00,West,274,0.0,1.0,91,0.00,,,0.00,weatherlink.com 1.10,2013-08-30 09:51:00,
2013-08-30 06:06:00,68.6,66.0,30.00,West,278,0.0,1.0,91,0.00,,,0.00,weatherlink.com 1.10,2013-08-30 10:06:00,
2013-08-30 06:21:00,68.5,66.0,30.00,West,272,0.0,1.0,91,0.00,,,0.00,weatherlink.com 1.10,2013-08-30 10:21:00,
2013-08-30 06:36:00,68.5,66.0,30.00,West,273,0.0,0.0,92,0.00,,,0.00,weatherlink.com 1.10,2013-08-30 10:36:00,
2013-08-30 06:51:00,68.6,66.0,30.01,West,273,0.0,1.0,92,0.00,,,0.00,weatherlink.com 1.10,2013-08-30 10:51:00,
2013-08-30 07:06:00,68.7,66.0,30.01,West,273,0.0,0.0,92,0.00,,,0.00,weatherlink.com 1.10,2013-08-30 11:06:00,
2013-08-30 07:21:00,68.9,67.0,30.02,NNE,17,0.0,1.0,92,0.00,,,0.00,weatherlink.com 1.10,2013-08-30 11:21:00,
2013-08-30 07:36:00,69.1,66.0,30.01,NW,309,0.0,0.0,91,0.00,,,0.00,weatherlink.com 1.10,2013-08-30 11:36:00,
2013-08-30 07:51:00,69.3,67.0,30.01,WNW,292,0.0,1.0,91,0.00,,,0.00,weatherlink.com 1.10,2013-08-30 11:51:00,
2013-08-30 08:06:00,69.6,67.0,30.00,WSW,239,0.0,3.0,90,0.00,,,0.00,weatherlink.com 1.10,2013-08-30 12:06:00,
2013-08-30 08:21:00,69.8,67.0,30.01,West,270,0.0,3.0,90,0.00,,,0.00,weatherlink.com 1.10,2013-08-30 12:21:00,
2013-08-30 08:36:00,70.2,67.0,30.01,WNW,292,0.0,2.0,89,0.00,,,0.00,weatherlink.com 1.10,2013-08-30 12:36:00,
2013-08-30 08:52:00,70.4,67.0,30.01,West,263,0.0,4.0,88,0.00,,,0.00,weatherlink.com 1.10,2013-08-30 12:52:00,
2013-08-30 09:06:00,70.8,67.0,30.01,WNW,284,0.0,1.0,88,0.00,,,0.00,weatherlink.com 1.10,2013-08-30 13:06:00,
2013-08-30 09:21:00,70.9,67.0,30.01,WNW,290,2.0,4.0,87,0.00,,,0.00,weatherlink.com 1.10,2013-08-30 13:21:00,
2013-08-30 09:36:00,71.4,67.0,30.00,WSW,243,0.0,2.0,86,0.00,,,0.00,weatherlink.com 1.10,2013-08-30 13:36:00,
2013-08-30 09:51:00,72.1,68.0,30.00,WSW,238,0.0,2.0,86,0.00,,,0.00,weatherlink.com 1.10,2013-08-30 13:51:00,
2013-08-30 10:06:00,72.6,68.0,30.00,West,263,1.0,5.0,85,0.00,,,0.00,weatherlink.com 1.10,2013-08-30 14:06:00,
2013-08-30 10:21:00,72.7,68.0,30.00,NNW,339,1.0,5.0,86,0.00,,,0.00,weatherlink.com 1.10,2013-08-30 14:21:00,
2013-08-30 10:36:00,72.7,68.0,30.00,West,262,2.0,4.0,85,0.00,,,0.00,weatherlink.com 1.10,2013-08-30 14:36:00,
2013-08-30 10:51:00,73.0,68.0,29.99,WSW,250,3.0,4.0,85,0.00,,,0.00,weatherlink.com 1.10,2013-08-30 14:51:00,
2013-08-30 11:06:00,73.3,69.0,29.99,NW,325,0.0,5.0,85,0.00,,,0.00,weatherlink.com 1.10,2013-08-30 15:06:00,
2013-08-30 11:21:00,73.8,68.0,29.98,SSW,213,1.0,4.0,83,0.00,,,0.00,weatherlink.com 1.10,2013-08-30 15:21:00,
2013-08-30 11:36:00,74.4,69.0,29.98,NNW,346,1.0,4.0,83,0.00,,,0.00,weatherlink.com 1.10,2013-08-30 15:36:00,
2013-08-30 11:51:00,75.0,69.0,29.97,SSE,163,0.0,5.0,82,0.00,,,0.00,weatherlink.com 1.10,2013-08-30 15:51:00,
2013-08-30 12:06:00,75.2,69.0,29.96,NW,318,0.0,4.0,81,0.00,,,0.00,weatherlink.com 1.10,2013-08-30 16:06:00,
2013-08-30 12:21:00,75.6,69.0,29.96,NNW,327,2.0,4.0,81,0.00,,,0.00,weatherlink.com 1.10,2013-08-30 16:21:00,
2013-08-30 12:37:00,76.0,69.0,29.95,SW,222,1.0,5.0,79,0.00,,,0.00,weatherlink.com 1.10,2013-08-30 16:37:00,
2013-08-30 12:52:00,77.3,70.0,29.95,West,269,1.0,4.0,77,0.00,,,0.00,weatherlink.com 1.10,2013-08-30 16:52:00,
2013-08-30 13:07:00,77.7,70.0,29.94,WNW,285,1.0,4.0,76,0.00,,,0.00,weatherlink.com 1.10,2013-08-30 17:07:00,
2013-08-30 13:22:00,78.3,70.0,29.94,North,358,0.0,5.0,76,0.00,,,0.00,weatherlink.com 1.10,2013-08-30 17:22:00,
2013-08-30 13:37:00,79.0,70.0,29.93,WSW,242,0.0,4.0,73,0.00,,,0.00,weatherlink.com 1.10,2013-08-30 17:37:00,
2013-08-30 13:52:00,79.3,69.0,29.93,West,271,1.0,6.0,71,0.00,,,0.00,weatherlink.com 1.10,2013-08-30 17:52:00,
2013-08-30 14:07:00,80.1,70.0,29.92,NNE,27,0.0,6.0,70,0.00,,,0.00,weatherlink.com 1.10,2013-08-30 18:07:00,
2013-08-30 14:22:00,80.3,70.0,29.91,SW,228,0.0,4.0,70,0.00,,,0.00,weatherlink.com 1.10,2013-08-30 18:22:00,
2013-08-30 14:37:00,80.7,70.0,29.91,WSW,238,2.0,3.0,69,0.00,,,0.00,weatherlink.com 1.10,2013-08-30 18:37:00,
2013-08-30 14:52:00,81.5,70.0,29.91,WNW,290,1.0,5.0,67,0.00,,,0.00,weatherlink.com 1.10,2013-08-30 18:52:00,
2013-08-30 15:07:00,81.5,70.0,29.91,West,278,2.0,4.0,67,0.00,,,0.00,weatherlink.com 1.10,2013-08-30 19:07:00,
2013-08-30 15:22:00,81.7,70.0,29.90,West,269,2.0,3.0,68,0.00,,,0.00,weatherlink.com 1.10,2013-08-30 19:22:00,
2013-08-30 15:37:00,81.9,70.0,29.90,West,264,3.0,4.0,67,0.00,,,0.00,weatherlink.com 1.10,2013-08-30 19:37:00,
2013-08-30 15:52:00,81.9,69.0,29.90,WSW,238,5.0,5.0,66,0.00,,,0.00,weatherlink.com 1.10,2013-08-30 19:52:00,
2013-08-30 16:07:00,82.3,69.0,29.89,SSE,162,1.0,4.0,65,0.00,,,0.00,weatherlink.com 1.10,2013-08-30 20:07:00,
2013-08-30 16:22:00,82.4,70.0,29.89,West,262,1.0,2.0,67,0.00,,,0.00,weatherlink.com 1.10,2013-08-30 20:22:00,
2013-08-30 16:38:00,82.3,70.0,29.89,West,269,0.0,5.0,67,0.00,,,0.00,weatherlink.com 1.10,2013-08-30 20:38:00,
2013-08-30 16:52:00,82.2,69.0,29.89,NNE,20,4.0,4.0,65,0.00,,,0.00,weatherlink.com 1.10,2013-08-30 20:52:00,
2013-08-30 17:07:00,81.7,71.0,29.89,NNW,342,0.0,2.0,69,0.00,,,0.00,weatherlink.com 1.10,2013-08-30 21:07:00,
2013-08-30 17:22:00,81.6,70.0,29.88,SW,226,0.0,4.0,68,0.00,,,0.00,weatherlink.com 1.10,2013-08-30 21:22:00,
2013-08-30 17:37:00,80.7,70.0,29.88,NNW,330,1.0,2.0,70,0.00,,,0.00,weatherlink.com 1.10,2013-08-30 21:37:00,
2013-08-30 17:52:00,80.7,71.0,29.87,WSW,250,1.0,2.0,71,0.00,,,0.00,weatherlink.com 1.10,2013-08-30 21:52:00,
2013-08-30 18:07:00,80.6,71.0,29.87,East,80,0.0,1.0,72,0.00,,,0.00,weatherlink.com 1.10,2013-08-30 22:07:00,
2013-08-30 18:22:00,80.4,71.0,29.87,North,360,0.0,3.0,72,0.00,,,0.00,weatherlink.com 1.10,2013-08-30 22:22:00,
2013-08-30 18:37:00,80.1,70.0,29.87,West,259,2.0,4.0,72,0.00,,,0.00,weatherlink.com 1.10,2013-08-30 22:37:00,
2013-08-30 18:52:00,79.8,70.0,29.86,NNE,15,0.0,2.0,73,0.00,,,0.00,weatherlink.com 1.10,2013-08-30 22:52:00,
2013-08-30 19:07:00,79.6,71.0,29.86,NW,317,0.0,2.0,75,0.00,,,0.00,weatherlink.com 1.10,2013-08-30 23:07:00,
2013-08-30 19:22:00,79.3,71.0,29.86,NNW,344,0.0,1.0,75,0.00,,,0.00,weatherlink.com 1.10,2013-08-30 23:22:00,
2013-08-30 19:37:00,78.4,71.0,29.86,West,276,0.0,0.0,77,0.00,,,0.00,weatherlink.com 1.10,2013-08-30 23:37:00,
2013-08-30 19:52:00,77.7,71.0,29.86,West,277,0.0,0.0,79,0.00,,,0.00,weatherlink.com 1.10,2013-08-30 23:52:00,
2013-08-30 20:08:00,77.0,71.0,29.86,West,277,0.0,0.0,81,0.00,,,0.00,weatherlink.com 1.10,2013-08-31 00:08:00,
2013-08-30 20:23:00,76.5,71.0,29.86,West,276,0.0,0.0,83,0.00,,,0.00,weatherlink.com 1.10,2013-08-31 00:23:00,
2013-08-30 20:38:00,75.9,71.0,29.86,West,276,0.0,0.0,84,0.00,,,0.00,weatherlink.com 1.10,2013-08-31 00:38:00,
2013-08-30 20:53:00,75.5,71.0,29.86,West,277,0.0,0.0,86,0.00,,,0.00,weatherlink.com 1.10,2013-08-31 00:53:00,
2013-08-30 21:08:00,75.1,71.0,29.86,West,276,0.0,0.0,87,0.00,,,0.00,weatherlink.com 1.10,2013-08-31 01:08:00,
2013-08-30 21:23:00,75.2,71.0,29.86,West,277,0.0,0.0,87,0.00,,,0.00,weatherlink.com 1.10,2013-08-31 01:23:00,
2013-08-30 21:38:00,75.5,71.0,29.87,West,276,0.0,0.0,86,0.00,,,0.00,weatherlink.com 1.10,2013-08-31 01:38:00,
2013-08-30 21:53:00,75.0,71.0,29.87,West,277,0.0,1.0,87,0.00,,,0.00,weatherlink.com 1.10,2013-08-31 01:53:00,
2013-08-30 22:08:00,74.4,71.0,29.88,West,277,0.0,0.0,88,0.00,,,0.00,weatherlink.com 1.10,2013-08-31 02:08:00,
2013-08-30 22:23:00,74.1,71.0,29.88,West,276,0.0,0.0,89,0.00,,,0.00,weatherlink.com 1.10,2013-08-31 02:23:00,
2013-08-30 22:38:00,73.8,71.0,29.88,West,277,0.0,0.0,90,0.00,,,0.00,weatherlink.com 1.10,2013-08-31 02:38:00,
2013-08-30 22:53:00,74.0,71.0,29.88,West,269,0.0,1.0,89,0.00,,,0.00,weatherlink.com 1.10,2013-08-31 02:53:00,
2013-08-30 23:08:00,74.2,71.0,29.88,West,260,0.0,1.0,89,0.00,,,0.00,weatherlink.com 1.10,2013-08-31 03:08:00,
2013-08-30 23:38:00,74.3,71.0,29.88,WSW,243,0.0,2.0,88,0.00,,,0.00,weatherlink.com 1.10,2013-08-31 03:38:00,
2013-08-30 23:53:00,74.2,71.0,29.87,West,264,2.0,3.0,89,0.00,,,0.00,weatherlink.com 1.10,2013-08-31 03:53:00,